Regional Weather Roundup
Issued by NWS

Home | Current Version | Previous Version | Text Only | Print | Product List | Glossary Off
Versions: 1 2 3 4 5 6 7 8 9 10 11 12 13 14 15 16 17 18 19 20 21 22 23 24 25 26 27 28 29 30 31 32 33 34 35 36 37 38 39 40 41 42 43 44 45 46 47 48 49 50

678
ASUS44 KMEG 181410
RWRTN
TENNESSEE HOURLY STATE WEATHER ROUNDUP
NATIONAL WEATHER SERVICE MEMPHIS TN
800 AM CST WED JAN 18 2017

TNZ002-004-019-021-049-052-054-088>092-181500-
WEST TENNESSEE

CITY           SKY/WX    TMP DP  RH WIND       PRES   REMARKS
MEMPHIS INTL   CLOUDY    47  40  76 NE7       30.22R
NWS MEMPHIS      N/A     45 N/A N/A MISG        N/A
JACKSON        CLOUDY    45  42  89 N3        30.23R
DYERSBURG      CLOUDY    43  39  87 E3        30.23R
UNION CITY     CLOUDY    43  43 100 CALM      30.22R
PARIS          CLOUDY    41  37  87 CALM      30.22R
HUNTINGDON     CLOUDY    45  41  87 NE5       30.21S
$$

TNZ008-025-027-028-033-062-065-066-181500-
NORTH MIDDLE TENNESSEE

CITY           SKY/WX    TMP DP  RH WIND       PRES   REMARKS
NASHVILLE      CLOUDY    45  38  76 VRB3      30.22S
PORTLAND       CLOUDY    43  39  87 NE3       30.21S
CLARKSVILLE    CLOUDY    44  38  79 N6        30.23R
SMYRNA         CLOUDY    45  41  86 N3        30.24R
GALLATIN       CLOUDY    45  41  87 NW5       30.25R
CROSSVILLE     CLOUDY    44  41  89 N3        30.18S
$$

TNZ061-075-076-078-094-096-097-181500-
SOUTH MIDDLE TENNESSEE

CITY           SKY/WX    TMP DP  RH WIND       PRES   REMARKS
FAYETTEVILLE   CLOUDY    48  45  87 N9        30.20R
TULLAHOMA      CLOUDY    45  43  93 CALM      30.21R
WINCHESTER     CLOUDY    46  45  93 N5        30.21R
MCMINNVILLE    CLOUDY    46  45  93 CALM      30.20R
COLUMBIA       CLOUDY    46  46 100 CALM      30.20R
SHELBYVILLE    CLOUDY    48  45  87 N3        30.22R
$$

TNZ017-018-042-046-047-181500-
NORTHEAST TENNESSEE

CITY           SKY/WX    TMP DP  RH WIND       PRES   REMARKS
TRI CITIES     PTSUNNY   51  44  77 W12       30.14R
ELIZABETHTON   CLOUDY    52  45  76 W12       30.13R
$$

TNZ012-013-036-069-073-074-181500-
CENTRAL EAST TENNESSEE

CITY           SKY/WX    TMP DP  RH WIND       PRES   REMARKS
KNOXVILLE      MOSUNNY   51  44  77 W7        30.16S
OAK RIDGE      MOSUNNY   52  44  74 VRB3      30.18S
GATLINBURG     SUNNY     50  45  81 W10       30.16S
MORRISTOWN     SUNNY     50  45  81 NW7G14    30.15S
JACKSBORO      CLOUDY    50  41  71 CALM      30.21R
$$

TNZ083-085-099-181500-
SOUTHEAST TENNESSEE

CITY           SKY/WX    TMP DP  RH WIND       PRES   REMARKS
CHATTANOOGA    PTSUNNY   55  46  71 NE10      30.18R
$$

SKY/WX REPORTED AS FAIR MEANS FEW OR NO CLOUDS BELOW
12 THOUSAND FEET.





USA.gov is the U.S. government's official web portal to all federal, state and local government web resources and services.